Location: ??????
(41.3794°N, 22.5014°E)
Time: 07:25:49
(UTC+00:00)

Cosmos 2112 Rocket - Pass Details

Date: 30 November 2020
Orbit: 756 x 787 km, 74.1° (Epoch: 17 January)

Event Time Altitude Azimuth Distance (km) Brightness Sun altitude
Rises 16:56:32 0° 182° (S) 3,222 7.4 -21.1°
Reaches altitude 10° 16:58:57 10° 177° (S) 2,305 6.6 -21.5°
Enters shadow 17:03:49 49° 110° (ESE) 993 4.2 -22.4°
